Powrót do katalogu

STARLINK-6053

AktywnyŁącznośćVLEO
NORAD 56466·PAYLOAD·🇺🇸 United States

Wystrzelony May 10, 2023 z Vandenberg Space Force Base

Loading…

Następne Przeloty (najbliższe 24 godziny)

TLE

ŚwieżeSource: CelesTrak SupGP

Epoka: Sep 15, 2026, 02:39 UTC

1 56466C 23064U   26258.11090278  .00007770  00000+0  65127-3 0  2585
2 56466  70.0032  26.7233 0003112 269.4710  60.4043 14.98320682    11

Śledź STARLINK-6053 w czasie rzeczywistym z AllMySat

Download on the App Store